Starlink 4705

operational
NORAD ID: 53723 Int'l Des: 2022-107 Owner: SPXS Country: US Constellation: starlink
LEOCIRCULAR

About Starlink 4705

Description loading...

Live Position

Loading 3D Globe...

Upcoming Passes

Altitude History

Altitude vs Time

uPlot chart will show altitude changes over time

Two-Line Element Set

1 53723U 22107Z 26062.09845832 .00001490 00000-0 11168-3 0 9991
2 53723 53.2169 283.3553 0001467 94.1258 265.9902 15.08852686193560
Epoch: Mar 3, 2026 • Age: 19 hours

Current Status

Altitude 543.5 km
Velocity 7.60 km/s
Sub-Earth Point 45.31°N, 31.69°W
Launch Date Sep 5, 2022
Age 3.4 years
Type internet

Technical Details

Classification Payload
Mass 305.00 kg
Dry Mass 290.00 kg
Total Mass 305.00 kg
Length 0.20 m
Diameter 2.80 m
Span 9.00 m
Shape Box + pan
Manufacturer SPXS
Bus Type Starlink
Phase Status In Orbit
Owner/State SPXS/US

Large Constellations

Loading constellations...